Location: Arcones
(41.1182°N, 3.7238°W)
Time: 08:55:13
(UTC+00:00)

IRAS Rocket - Pass Details

Date: 19 March 2026
Orbit: 845 x 876 km, 100.1° (Epoch: 19 April)

Event Time Altitude Azimuth Distance (km) Brightness Sun altitude
Rises 19:35:18 0° 157° (SSE) 3,450 7.0 -13.8°
Reaches altitude 10° 19:37:41 10° 156° (SSE) 2,514 6.3 -14.2°
Maximum altitude 19:43:15 74° 72° (ENE) 903 4.2 -15.3°
Drops below altitude 10° 19:48:49 10° 348° (NNW) 2,512 7.0 -16.3°
Sets 19:51:11 0° 347° (NNW) 3,448 7.8 -16.7°
